Location: Unspecified
(0.0000°N, 0.0000°E)
Time: 10:22:44
(UTC+02:00)

Cosmos 1300 - Visible Passes

Search period start: 28 April 2017 00:00
Search period end: 08 May 2017 00:00
Orbit: 514 x 518 km, 82.5° (Epoch: 26 April)

Date Brightness Start Highest point End Pass type
(mag) Time Alt. Az. Time Alt. Az. Time Alt. Az.
28 Apr 4.6 07:17:53 10° NNE 07:21:22 34° E 07:24:52 10° SSE visible
29 Apr 5.1 07:03:11 10° NNE 07:06:25 26° E 07:09:40 10° SE visible
30 Apr 5.5 06:48:34 10° NE 06:51:28 21° E 06:54:22 10° SE visible
01 May 5.9 06:34:05 10° NE 06:36:31 16° E 06:38:55 10° SE visible
02 May 6.0 06:19:53 10° ENE 06:21:33 12° E 06:23:13 10° ESE visible
04 May 3.6 07:23:44 10° NNW 07:27:03 28° W 07:30:22 10° SSW visible
05 May 3.2 07:08:32 10° NNW 07:12:05 36° W 07:15:38 10° SSW visible
06 May 2.8 06:53:25 10° NNW 06:57:06 49° W 07:00:50 10° S visible
07 May 2.6 06:38:21 10° NNW 06:42:09 66° W 06:45:57 10° S visible
